Tracking 28790 objects as of 19-Apr-2024
HD Live streaming from Space Station
objects crossing your sky now

FENGYUN 1C DEB

Track FENGYUN 1C DEB now!
10-day predictions


NORAD ID: 31325
Int'l Code: 1999-025BQD
Perigee: 811.3 km
Apogee: 927.7 km
Inclination: 99.0 °
Period: 102.2 minutes
Semi major axis: 7240 km
RCS: 0.0037 m2 (small)
Launch date: May 10, 1999
Source: People's Republic of China (PRC)
Launch site: Taiyaun Space Center, China (TSC)

Note: This is SATELLITE DEBRIS
Your satellite tracking list
Your tracking list is empty




NASA's NSSDC Master Catalog

Two Line Element Set (TLE):
1 31325U 99025BQD 24101.50570702  .00003874  00000-0  21901-2 0  9990
2 31325  99.0006 186.2599 0080389 148.0701 212.5377 14.09123566511437
Source of the keplerian elements: AFSPC